Úvod História Fotogaléria Ponuka Kurzy Kontakt

Objednávky od 01. 01. 2016

Číslo objednávky Dodávateľ IČO Predmet dodávky Hodnota s DPH Dátum vyhotovenia Vyhotovil Funkcia
4500027296 AJFA+AVIS, s.r.o. Žilina 31602436 predpl. čas. Mzd.účtov. r.2016 49,50 EUR 05.01.2016 M.Tatarková hospodárka
4500027297 Černický Pavol, Nemešany 14375168 kontr.hasiac.prístr.a pož.hydrant. 331,00 EUR 05.01.2016 M.Tatarková hospodárka
4500027334 Nomiland, s.r.o., Košice 36174319 učebné pomôcky 6,50 EUR 14.01.2015 M.Tatarková hospodárka
4500027335 Asystel, s.r.o., SNV 45634289 servis.prehl. telef. ústredne 750,00 EUR 14.01.2016 M.Tatarková hospodárka
4500027336 Poradca podnikateľa,s.r.o.Žilina 31592503 Finanč.sprav. vyúčt. r.2015 12,46 EUR 14.01.2016 M.Tatarková hospodárka
4500027383 Poradca podnikateľa,s.r.o.Žilina 36371271 Predl. Poradca 2016 24,90 EUR 21.01.2016 M.Tatarková hospodárka
4500027411 Drucker, s.r.o. Oščadnica 44925417 repasácia tonerov 157,38 EUR 21.01.2016 M.Tatarková hospodárka
4500027426 M.B.M. nábytok, s.r.o. SNV 36580112 kuchynský pult pod mikrovlnku 55,00 EUR 21.01.2016 M.Tatarková hospodárka
4500027448 Stavebniny, s.r.o., Harichovce 36571547 materiál na údržbu 34,69 EUR 27.01.2016 M.Tatarková hospodárka
4500027464 LS Pracovné odevy s.r.o, SNV 46255061 prac. odev 14,40 EUR 28.01.2016 M.Tatarková hospodárka
4500027511 Mlynarčík František, SNV 17296978 servis.práce na kuchyns. Váhach 141,84 EUR 01.02.2015 M.Tatarková hospodárka
4500027545 Pracovné odevy, SNV 30666171 prac. odev a obuv 136,06 EUR 01.02.2015 M.Tatarková hospodárka
4500027551 Róbert Rusňák, Levoča 34803459 strava - Rekondičný deň 190,00 EUR 01.02.2015 M.Tatarková hospodárka
4500027556 Wolters Kluwer,s.r.o.,Bratislava 31348262 odborné publikácie 27,80 EUR 04.02.2015 M.Tatarková hospodárka
4500027617 ADCOMP SK, s.r.o., SNV 46923748 repasácia tonerov 93,60 EUR 09.02.2015 M.Tatarková hospodárka
4500027631 Dušan Slaninka, Harichovce 10756744 odb.skúška plynov.zariadenia 296,92 EUR 04.02.2015 M.Tatarková hospodárka
4500027643 MIVA Market,s.r.o. Smižany 36704041 prostr.na umýv. riadu 492,07 EUR 10.02.2016 M.Tatarková hospodárka
4500027645 MIVA Market,s.r.o. Smižany 36704041 prostr. na pranie 559,36 EUR 10.02.2016 M.Tatarková hospodárka
4500027647 MIVA Market,s.r.o. Smižany 36704041 dezinfekčné prostr. 257,15 EUR 10.02.2016 M.Tatarková hospodárka
4500027654 MIVA Market,s.r.o. Smižany 36704041 hygienické prostr. 428,82 EUR 10.02.2016 M.Tatarková hospodárka
4500027656 MIVA Market,s.r.o. Smižany 36704041 prostr. na upratovanie 640,13 EUR 10.02.2016 M.Tatarková hospodárka
4500027660 Pracovné odevy, SNV 30666171 prac. odev a obuv 136,06 EUR 01.02.2016 M.Tatarková hospodárka
4500027702 Ing.A.Ferenc-TOPO, Prešov 32923244 čistiace prostriedky 380,28 EUR 16.02.2016 M.Tatarková hospodárka
4500027695 Marta Točoňová, Levoča 34804951 práčka WHIRPOOL 309,00 EUR 16.02.2016 M.Tatarková hospodárka
4500027704 AUTOŠKOLA-Dzugas, Levoča 40857662 školenie vodičov 30,00 EUR 17.02.2016 M.Tatarková hospodárka
4500027726 Tlačiareň IRIS, Bratislava 48058629 odborné publikácie 33,90 EUR 17.02.2016 M.Tatarková hospodárka
4500027814 V.Kamenický, Spiš. Podhradie 37480642 preprac.pečiatky-zákl.finan.kontr. 53,20 EUR 24.02.2016 M.Tatarková hospodárka
4500027815 Drucker, s.r.o., Oščadnica 44925417 repasácia tonerov 72,80 EUR 29.02.2016 M.Tatarková hospodárka
4500027830 Matalík Peter, Levoča 37479687 police LDTD 204,48 EUR 29.02.2016 M.Tatarková hospodárka
4500027852 Technické služby, Levoča 35528052 uloženie objem.odpadu 30,09 EUR 02.03.2016 M.Tatarková hospodárka
4500027854 Pracovné odevy, SNV 30666171 prac. odev a obuv 74,20 EUR 04.03.2016 M.Tatarková hospodárka
4500027868 V.Kamenický, Spiš. Podhradie 37480642 výroba banerov 255,84 EUR 03.03.2016 M.Tatarková hospodárka
4500027869 AUTO-VALAS, s.r.o.Smižany 31681743 diagnostika Fiat DOBLO 19,99 EUR 07.03.2016 M.Tatarková hospodárka
4500027908 PP-revízie, s.r.o., SNV 44612231 odbor.prehl. plyn. kotolne 95,00 EUR 03.03.2016 M.Tatarková hospodárka
4500027955 Ing.Ľ.Petruška, Spišské Vlachy 44953836 rohož do sprchy, zemina 19,61 EUR 14.03.2016 M.Tatarková hospodárka
4500027965 Vlan, s.r.o., Slovenský Grob 46118896 kalibrácia alkoholtestera 34,00 EUR 11.03.2016 M.Tatarková hospodárka
4500027966 PhDr.Potengová L., Levoča 37785923 psychologicko-poraden.starostl. 80,00 EUR 11.03.2016 M.Tatarková hospodárka
4500027967 Jozef Kuľa, Levoča 33058237 oprava zábradlia 115,44 EUR 11.03.2016 M.Tatarková hospodárka
4500027968 Marta Točoňová, Levoča 34804951 filtre do filtr.konvice 36,00 EUR 11.03.2016 M.Tatarková hospodárka
4500028000 RVC-ZO Štrba 31954502 odborná publikácia 28,00 EUR 08.03.2016 M.Tatarková hospodárka
4500028003 Opr.-mont.gastro zariad.Vrbov 33878579 oprava plynovej panvice 57,95 EUR 14.03.2016 M.Tatarková hospodárka
4500028050 ADCOMP SK, SNV 46923748 repasácia tonerov 45,00 EUR 21.03.2016 M.Tatarková hospodárka
4500028058 AUTO EFEKT, Levoča 40858821 výmena tlmičov Fiat 165,60 EUR 21.03.2016 M.Tatarková hospodárka
4500028060 MIVA Market, Smižany 36704041 hygienické potreby 82,97 EUR 21.03.2016 M.Tatarková hospodárka
4500028062 MIVA Market, Smižany 36704041 kancelárske potreby 703,44 EUR 21.03.2016 M.Tatarková hospodárka
4500028126 Železiarstvo Olekšák, Levoča 36781410 materiál na údržbu 175,40 EUR 29.03.2016 M.Tatarková hospodárka
4500028139 Ján Lorko JAPA AUTO, Levoča 40858596 auto súčiastky 103,30 EUR 29.03.2016 M.Tatarková hospodárka
4500028141 AUTO EFEKT, Levoča 40858821 výmena filtrov a pneu. Octavia 110,80 EUR 01.04.2016 M.Tatarková hospodárka
4500028180 MIVA Market, Smižany 36704041 prezentačný Klip-rám 227,63 EUR 01.04.2016 M.Tatarková hospodárka
4500028200 RNDr.Allan Dudinský, Levoča 31303951 prac.odev a obuv 170,35 EUR 04.04.2016 M.Tatarková hospodárka
4500028223 Martina Klembarová, Levoča 50093355 čist. a hygien. potreby 178,33 EUR 06.04.2016 M.Tatarková hospodárka
4500028230 Hotel Arkáda, Levoča 36451134 seminár - deň učiteľov 372,00 EUR 01.04.2016 M.Tatarková hospodárka
1003030006 Slovak Telekom, Bratislava 35763469 telef. + internet - zmluva na služby 910,00 EUR 08.04.2016 M.Tatarková hospodárka
4500028328 Pracovné odevy, SNV 30666171 prac. obuv 13,90 EUR 19.04.2016 M.Tatarková hospodárka
4500028329 Ing. Pavol Andreánsky, SNV 34575723 posteľná bielizeň 1 219,95 EUR 19.04.2016 M.Tatarková hospodárka
4500028355 ZONIC - Zoričák Jozef, Levoča 37479369 svietidlá 44,65 EUR 18.04.2016 M.Tatarková hospodárka
4500028358 ZONIC - Zoričák Jozef, Levoča 37479369 LED žiarovky 915,35 EUR 18.04.2016 M.Tatarková hospodárka
4500028362 ZONIC - Zoričák Jozef, Levoča 37479369 elektro materiál 243,04 EUR 18.04.2016 M.Tatarková hospodárka
4500028362 ZONIC - Zoričák Jozef, Levoča 33878579 oprava plynovej panvice 57,95 EUR 14.03.2016 M.Tatarková hospodárka
4500028375 SOBWATER, Levoča 36457167 tabletovaná soľ 30,60 EUR 22.04.2016 M.Tatarková hospodárka
4500028376 VEROZ s.r.o., Levoča 36597830 vyprac. Protokol o určení vonk. Vplyv. 540,00 EUR 22.04.2016 M.Tatarková hospodárka
4500028395 POK Peter Vanacký, Levoča 37479393 kontrola komínov 120,00 EUR 25.04.2016 M.Tatarková hospodárka
4500028482 AUTO EFEKT, Levoča 40858821 výmena pneumatík Fiat 15,60 EUR 27.04.2016 M.Tatarková hospodárka
4500028507 Matalík Peter, Levoča 37479687 hranoly na opravu lavičiek 300,00 EUR 02.05.2016 M.Tatarková hospodárka
4500028623 SYSTEMHOUSE, Levoča 34802665 oprava tlačiarne 30,00 EUR 10.05.2016 M.Tatarková hospodárka
4500028634 NÁDEJ-výd.zdr.potrieb,Levoča 33982317 zdravotnícke potreby 68,86 EUR 10.05.2016 M.Tatarková hospodárka
4500028637 NÁDEJ-výd.zdr.potrieb,Levoča 33982317 tlakomer OMRON 82,00 EUR 10.05.2016 M.Tatarková hospodárka
4500028638 RNDr. Allan Dudinský, Uloža 31303951 prac. obuv + odev 34,54 EUR 10.05.2016 M.Tatarková hospodárka
4500028639 Atlantis Systems, s.r.o., BA 35844230 web hosting obnova domény r.2016 95,95 EUR 10.05.2016 M.Tatarková hospodárka
4500028683 Viera Šefčíková, Levoča 37477277 kancel.potreby 263,77 EUR 10.05.2016 M.Tatarková hospodárka
4500028704 ADCOMP SK, s.r.o., SNV 46923748 repasácia tonerov 54,81 EUR 17.05.2016 M.Tatarková hospodárka
4500028728 Nezábudka, s.r.o., SNV 47968834 kuchynské potreby 27,00 EUR 19.05.2016 M.Tatarková hospodárka
4500028764 František Rybka, Poprad 44771258 servis vzduchotechniky 200,00 EUR 20.05.2016 M.Tatarková hospodárka
4500028766 Sféra Slovakia s.r.o., Levoča 46188100 EasyLink 12T 720,00 EUR 20.05.2016 M.Tatarková hospodárka
4500028767 PosAm, spol.s.r.o., Bratislava 31365078 USB token 99,58 EUR 20.05.2016 M.Tatarková hospodárka
4500028819 Technické služby mesta Levoča 35528052 uskladn. objem. odpadu 6,02 EUR 24.05.2016 M.Tatarková hospodárka
4500028880 Jozef Bendžala, Levoča 41743806 preprava osôb autobusom 205,00 EUR 30.05.2016 M.Tatarková hospodárka
4500028883 Mariana Palugová, Levoča 37479750 zemina + postreky 21,69 EUR 30.05.2016 M.Tatarková hospodárka
4500028974 ADCOMP SK, s.r.o., SNV 46923748 repasácia tonerov 58.40 EUR 06/06/2016 M.Tatarková hospodárka
4500029007 ADCOMP SK, s.r.o., SNV 46923748 toner originál 261.30 EUR 13/06/2016 M.Tatarková hospodárka
4500029036 SAGITTA, spol.s.r.o., Bratislava 17313520 učebné pomôcky 113.74 EUR 13/06/2016 M.Tatarková hospodárka
4500029041 PORADCA s.r.o.,Žilina 36371271 predpl.Poradca r.2017 49.80 EUR 15/06/2016 M.Tatarková hospodárka
4500029045 Pharmalena s.r.o., Levoča 44225253 zdravotné potreby 73.19 EUR 15/06/2016 M.Tatarková hospodárka
4500029133 AUTO EFEKT-Dávid Kedžuch,LE 40858821 servis mot.voz. Octavia 293.80 EUR 23/06/2016 M.Tatarková hospodárka
4500029140 AJ Produkty, a.s., Bratislava 36268518 zariad.na presun-sťahovanie 117.60 EUR 20/06/2016 M.Tatarková hospodárka
4500029162 Ján Varga, VATECH, Z.Teplica 33950172 servis plyn. Kotolne 280.96 EUR 22/06/2016 M.Tatarková hospodárka
4500029189 SYSTEMHOUSE, Levoča 34802665 fotoaparát, GPS, prehráv.zariad. 864.48 EUR 28/06/2016 M.Tatarková hospodárka
4500029190 AJ Produkty, a.s., Bratislava 36268518 mobil.kontajner 238.80 EUR 27/06/2016 M.Tatarková hospodárka
4500029211 SKN M.Hrebendu, Levoča 37780387 šlabikár v bodov. Písme 150.00 EUR 27/06/2016 M.Tatarková hospodárka
4500029352 Marek Tatarko, Harichovce 44858035 maliarske práce 1 830,35 EUR 12.07.2016 M.Tatarková hospodárka
4500029380 Martina Klembarová, Levoča 50093355 čistiace potreby 81,78 EUR 14.07.2016 M.Tatarková hospodárka
4500029405 BAL SLOVAKIA, s.r.o. Žilina 36396044 farby a maliarske potreby 1 127,90 EUR 14.07.2016 M.Tatarková hospodárka
4500029432 Wolters Kluwer, s.r.o., Bratislava 31348262 predpl.Účtovn. ROPO 11/16-10/17 79,80 EUR 20.07.2016 M.Tatarková hospodárka
M.Tatarková hospodárka
4500029540 Ľubomír Kaňuch, Iliašovce 34572970 služby bezpečn.techn. 07/2016 50,00 EUR 03.08.2016 M.Tatarková hospodárka
4500029541 Vladimír Dulovič, Levoča 10763368 kontrola ozvučenia r.2015 120,00 EUR 08.08.2016 M.Tatarková hospodárka
4500029542 Vladimír Dulovič, Levoča 10763368 kontrola ozvučenia r.2016 120,00 EUR 08.08.2016 M.Tatarková hospodárka
1003030007 Slovak Telekom, Bratislava 35763469 rezervácia prostr. telef. 2016-2018 1420,- EUR 01.08.2016 M.Tatarková hospodárka
1003030008 Slovak Telekom, Bratislava 35763469 rezervácia prostr. internet 2016-2018 720,- EUR 01.08.2016 M.Tatarková hospodárka
4500029571 V.Kamenický, Spiš.Podhradie 37480642 pečiatka na registratúru 44,40 EUR 11.08.2016 M.Tatarková hospodárka
4500029660 Joint Custody, s.r.o., Bratislava 47934743 tublet pre nevidiacich 199,95 EUR 26.08.2016 M.Tatarková hospodárka
4500029708 Drucker, s.r.o., Oščadnica 44925417 repasácia tonerov 104,70 EUR 05.09.2016 M.Tatarková hospodárka
4500029770 SYSTEMHOUSE, Levoča 34802665 SD karta + taška - fotoaparát 56,55 EUR 06.09.2016 M.Tatarková hospodárka
4500029805 MANUTAN, s.r.o., Bratislava 35885815 ochranné okuliare 384,00 EUR 08.09.2016 M.Tatarková hospodárka
4500029811 AUTO EFEKT, Levoča 40858821 údržba-výmena oleja Fiat Doblo 66,40 EUR 13.09.2016 M.Tatarková hospodárka
4500029893 POK Peter Vanacký, Levoča 37479393 kontrola komínov 120,00 EUR 15.09.2016 M.Tatarková hospodárka
4500029894 TEXNET s.r.o., Spiš.Štvrtok 36604372 servis a údržba videovrátnika 957,60 EUR 12.09.2016 M.Tatarková hospodárka
4500029985 SYSTEMHOUSE, Levoča 34802665 slúchadlá + mikrofón 108,70 EUR 21.09.2016 M.Tatarková hospodárka
4500029988 V.Kamenický, Spiš.Podhradie 37480642 mapa - masér.kurz - laminovanie 247,44 EUR 23.09.2016 M.Tatarková hospodárka
4500030030 DATAS-Lučivjanský, SNV 35320214 oprava kopír.stroja Minolta 112,60 EUR 26.09.2016 M.Tatarková hospodárka
4500030031 ADCOMP SK, SNV 46923748 repasácia tonerov 116,80 EUR 26.09.2016 M.Tatarková hospodárka
4500030054 Železiarstvo Olekšák, Levoča 36781410 AKU uťahovačka MAKITA 189,90 EUR 29.09.2016 M.Tatarková hospodárka
4500030058 Železiarstvo Olekšák, Levoča 36781410 dielenský mat. + mat.na údržbu 212,73 EUR 29.09.2016 M.Tatarková hospodárka
4500030072 CORA GASTRO, Poprad 44857187 šoker 2 044,80 EUR 26.09.2016 M.Tatarková hospodárka
4500030083 Ab-obchod, s.r.o., Prievidza 50100815 rezačka DAHLE - zostava 1 760,00 EUR 29.09.2016 M.Tatarková hospodárka
4500030100 BAL SLOVAKIA s.r.o., Žilina 36396044 farby a maliarske potreby 43,14 EUR 29.09.2016 M.Tatarková hospodárka
4500030094 NÁDEJ-výd.zdr.potrieb,Levoča 33982317 zdravotnícky materiál 84,42 EUR 03.10.2016 M.Tatarková hospodárka
4500030177 JRK Waste Management, s.r.o. 45423237 komposter 1 380,00 EUR 06.10.2016 M.Tatarková hospodárka
4500030178 DATAS-Lučivjanský, SNV 35320214 kopírovací stroj Sharp 1 848,00 EUR 06.10.2016 M.Tatarková hospodárka
4500030182 DATAS-Lučivjanský, SNV 35320214 kopírovací stroj Brother 149,00 EUR 06.10.2016 M.Tatarková hospodárka
4500030213 EL spol.s.r.o., SNV 31652859 analýza potravín 56,04 EUR 06.10.2016 M.Tatarková hospodárka
4500030219 Mgr.M. Valkovič,KNIHATAR,PP 47351969 vzduch.puška s prísluš. 2 270,00 EUR 10.10.2016 M.Tatarková hospodárka
4500030340 MIVA Market spol.s.r.o., SNV 36704041 textilné výr. pre domácnosť 100,37 EUR 13.10.2016 M.Tatarková hospodárka
4500030343 MIVA Market spol.s.r.o., SNV 36704041 predmety osobnej starostl. 614,52 EUR 13.10.2016 M.Tatarková hospodárka
4500030344 MIVA Market spol.s.r.o., SNV 36704041 domáce potreby 219,79 EUR 13.10.2016 M.Tatarková hospodárka
4500030359 MIVA Market spol.s.r.o., SNV 36704041 čistiace a leštiace výrob. 786,19 EUR 13.10.2016 M.Tatarková hospodárka
4500030362 ILLE-papier-service SK,Skalica 36226947 zásobník toal. papiera 37,20 EUR 03.10.2016 M.Tatarková hospodárka
4500030363 ILLE-papier-service SK,Skalica 36226947 zásobník toal. papiera 74,40 EUR 03.10.2016 M.Tatarková hospodárka
4500030392 ZONIC-Zoričák Jozef, Levoča 37479369 elektro materiál 249,36 EUR 24.10.2016 M.Tatarková hospodárka
4500030388 OGO, s.r.o., Bratislava 45387214 hrnčiarsky kruh PROFI 2 040,26 EUR 24.10.2016 M.Tatarková hospodárka
4500030411 Róbert Gallo-GALLO, Žilina 35410108 ryhovací-perforovací stroj 369,60 EUR 24.10.2016 M.Tatarková hospodárka
4500030419 SYSTEMHOUSE, Levoča 34802665 kancelárske potreby 38,87 EUR 24.10.2016 M.Tatarková hospodárka
4500030470 S.Bendík-TeSyBe, SNV 46037551 servisné práce- zmeny v telef. 158,00 EUR 26.10.2016 M.Tatarková hospodárka
4500030471 PhDr.Potengová, Levoča 37785923 psycholog.-poradenská starostl. 30,00 EUR 20.10.2016 M.Tatarková hospodárka
4500030526 SKN M. Hrbendu, Levoča 37780387 časopisy a kalend.pre nevid.r.2017 135,00 EUR 31.10.2016 M.Tatarková hospodárka
4500030527 MK alarm s.r.o.,Lipt.Mikuláš 36370606 oprava automat. Brány 186,30 EUR 31.10.2016 M.Tatarková hospodárka
4500030094 NÁDEJ-výd.zdr.potrieb,Levoča 33982317 zdravotnícky materiál 84.42 EUR 03/10/2016 M.Tatarková hospodárka
4500030177 JRK Waste Management, s.r.o. 45423237 komposter 1,380.00 EUR 06/10/2016 M.Tatarková hospodárka
4500030178 DATAS-Lučivjanský, SNV 35320214 kopírovací stroj Sharp 1,848.00 EUR 06/10/2016 M.Tatarková hospodárka
4500030182 DATAS-Lučivjanský, SNV 35320214 kopírovací stroj Brother 149.00 EUR 06/10/2016 M.Tatarková hospodárka
4500030213 EL spol.s.r.o., SNV 31652859 analýza potravín 56.04 EUR 06/10/2016 M.Tatarková hospodárka
4500030219 Mgr.M. Valkovič,KNIHATAR,PP 47351969 vzduch.puška s prísluš. 2,270.00 EUR 10/10/2016 M.Tatarková hospodárka
AUTO EFEKT - D.Kedžuch, Lev 40858821 výmena pneumat. Osob. Mot.voz. 35.00 EUR 04/11/2016 Tatarková M. M.Tatarková hospodárka
4500030576 NOBYT, s.r.o., Prešov 36451941 prútie - učeb.pomôcky 620.60 EUR 04/11/2016 M.Tatarková hospodárka
4500030581 Drucker, s.r.o., Oščadnica 44925417 repasácia tonerov 72.80 EUR 08/11/2016 M.Tatarková hospodárka
4500030600 AjMy, s.r.o., Levoča 46274413 lepenka strojová 25.00 EUR 07/11/2016 M.Tatarková hospodárka
4500030717 Zemčák Mário, Levoča 33056137 ostrenie nožov a výroba kľúčov 21.90 EUR 07/11/2016 M.Tatarková hospodárka
4500030745 AJ Produkty, a.s. Bratislava 36268518 plošinový vozík 152.40 EUR 14/11/2016 M.Tatarková hospodárka
4500030773 AUTOŠKOLA-Dzugas. Levoča 40857662 školenie vodičov 60.00 EUR 16/11/2016 M.Tatarková hospodárka
4500030774 Marta Točoňová, Levoča 34804951 filtre do filtr.konvice 54.00 EUR 16/11/2016 M.Tatarková hospodárka
4500030789 Mgr. Dagmar Čeljusková, Košice 45997691 učebné pomôcky 81.16 EUR 21/11/2016 M.Tatarková hospodárka
4500030796 Slovenská pošta, a.s.,B.Bystr. 36631124 predpl. odbor.čas. r.2017 35.28 EUR 21/11/2016 M.Tatarková hospodárka
4500030843 Ing.Ľ. Petruška, Spiš.Vlachy 44953836 materiál na údržbu 23.50 EUR 21/11/2016 M.Tatarková hospodárka
4500030844 ELPS, s.r.o., Letanovce 47251026 odbor.prehl. a skúška elektr.inšt. 97.00 EUR 21/11/2016 M.Tatarková hospodárka
4500030845 M.Valkoššáková, SNV 47819804 ozvučov. Zariadenie 815.00 EUR 21/11/2016 M.Tatarková hospodárka
4500030881 SOBWATER s.r.o., Levoča 36457167 tabletovaná soľ 30.40 EUR 24/11/2016 M.Tatarková hospodárka
4500030895 ZONIC-Zoričák Jozef, Levoča 37479369 elektro materiál 214.33 EUR 25/11/2016 M.Tatarková hospodárka
4500030903 M.Klembarová-drogéria, Levoča 50093355 prostr.na upratovanie 103.30 EUR 25/11/2016 M.Tatarková hospodárka
4500030910 Železiarstvo Olekšák, Levoča 36781410 materiál na údržbu 190.38 EUR 25/11/2016 M.Tatarková hospodárka
4500030094 NÁDEJ-výd.zdr.potrieb,Levoča 33982317 zdravotnícky materiál 84,42 EUR 03.10.2016 M.Tatarková hospodárka
4500030177 JRK Waste Management, s.r.o. 45423237 komposter 1 380,00 EUR 06.10.2016 M.Tatarková hospodárka
4500030178 DATAS-Lučivjanský, SNV 35320214 kopírovací stroj Sharp 1 848,00 EUR 06.10.2016 M.Tatarková hospodárka
4500030182 DATAS-Lučivjanský, SNV 35320214 kopírovací stroj Brother 149,00 EUR 06.10.2016 M.Tatarková hospodárka
4500030213 EL spol.s.r.o., SNV 31652859 analýza potravín 56,04 EUR 06.10.2016 M.Tatarková hospodárka
4500030219 Mgr.M. Valkovič,KNIHATAR,PP 47351969 vzduch.puška s prísluš. 2 270,00 EUR 10.10.2016 M.Tatarková hospodárka
4500031014 FAST PLUS,s.r.o., Bratislava 35712783 slúchadlá MDR-ZX11 279,80 EUR 05.12.2016 M.Tatarková hospodárka
4500031017 FAST PLUS,s.r.o., Bratislava 35712783 kávovar TAS4502 218,00 EUR 05.12.2016 M.Tatarková hospodárka
4500031020 FAST PLUS,s.r.o., Bratislava 35712783 kapsule do kávovaru 53,88 EUR 05.12.2016 M.Tatarková hospodárka
4500031024 Viera Šefčíková, Levoča 37477277 kancelárske potreby 214,32 EUR 02.12.2016 M.Tatarková hospodárka
4500031053 Marta Točoňová, Levoča 34804951 varné konvice + napar.žehlička 107,00 EUR 05.12.2016 M.Tatarková hospodárka
4500031054 ZONIC-Zoričák Jozef, Levoča 37479369 stolné svietidlá + elektro mater. 390,10 EUR 05.12.2016 M.Tatarková hospodárka
4500031073 Ján Šurina TVS Žilina 35291214 uteráky + utierky na upratovanie 914,54 EUR 05.12.2016 M.Tatarková hospodárka
4500031074 Firma B2B Partner,s.r.o.BA 44413467 šatník trojdielny 250,80 EUR 06.12.2016 M.Tatarková hospodárka
4500031089 Ján Ľorko JAPA AUTO, Levoča 40858596 auto materiál 49,80 EUR 07.12.2016 M.Tatarková hospodárka
4500031110 Sféra Slovakia s.r.o., Levoča 46188100 tyflosonarové okuliare 219,00 EUR 08.12.2016 M.Tatarková hospodárka
4500031116 REFAM s.r.o., Galanta 46124934 poplatok za seminár 140,00 EUR 07.12.2016 M.Tatarková hospodárka
4500031151 M.B.M. nábytok s.r.o., SNV 36580112 stolík konferenčný 42,00 EUR 08.12.2016 M.Tatarková hospodárka
4500031157 Zemčák Mário, Levoča 33056137 výroba kľúčov 15,00 EUR 08.12.2016 M.Tatarková hospodárka
4500031158 DATAS-Lučivjanský, SNV 35320214 kopírovací stroj Minolta 1 150,00 EUR 08.12.2016 M.Tatarková hospodárka
4500031199 NAY a.s., Bratislava 35739487 audiosystém s CD/MP3 259,00 EUR 12.12.2016 M.Tatarková hospodárka
4500031200 Firma B2B Partner,s.r.o.BA 44413467 skrine kombinované 938,40 EUR 08.12.2016 M.Tatarková hospodárka
4500031256 RNDr. Allan Dudinský, Uloža 31303951 prac.obuv a odev 104,78 EUR 16.12.2016 M.Tatarková hospodárka
4500031257 ADCOMP SK, s.r.o., SNV 46923748 repasácia tonerov 195,80 EUR 16.12.2016 M.Tatarková hospodárka
4500031258 Železiarstvo Olekšák s.r.o.,LE 36781410 kuchynské potreby 62,99 EUR 16.12.2016 M.Tatarková hospodárka
4500031259 SYSTEMHOUSE, Levoča 34802665 oprava počítača 20,00 EUR 14.12.2016 M.Tatarková hospodárka
4500031260 Firma B2B Partner,s.r.o.BA 44413467 regál 6 policový 441,60 EUR 16.12.2016 M.Tatarková hospodárka
4500031276 Ján Lorko JAPA AUTO, LE 40858596 reťaze snehové 165,00 EUR 19.12.2016 M.Tatarková hospodárka
4500031294 SYSTEMHOUSE, Levoča 34802665 VIASS Pro optický zameriavač 1 699,00 EUR 16.12.2016 M.Tatarková hospodárka
4500031302 Viera Šefčíková, Levoča 37477277 kancelárske potreby 271,48 EUR 19.12.2016 M.Tatarková hospodárka
M.Tatarková hospodárka

© 2005 Rehabilitačné stredisko pre zrakovo postihnutých | Kasárenská 16, 054 01 Levoča
tel: +421 053 416 6411 | telefax: +421 053 416 6432 | e-mail: rszp@rszp.sk